Weather in Mallawi

Egypt     27°43′35″N   30°50′36″E
temp.,
°C
wind,
m/s
gust,
m/s
humid.,
%
clouds,
%
prec.,
mm/h
press.,
hPa
HPBL,
m
11 april, sun
sun1123:00+14n812370 0.0 1021499
02:00+12n611470 0.0 1020436
05:00+10nnw48560 0.0 1021240
08:00+13n69490 0.0 1022783
11:00+19n67290 0.0 10211203
14:00+23n67190 0.0 10191559
17:00+23n78180 0.0 10181612
20:00+19n45260 0.0 101971
12 april, mon
mon1223:00+16n813370 0.0 1020432
02:00+13n712480 0.0 1020361
05:00+12n610590 0.0 1020287
08:00+14n710480 0.0 1021603
11:00+21n78240 0.0 10201185
14:00+25n78150 0.0 10171566
17:00+24n88160 0.0 10171505
20:00+20nnw59230 0.0 1018133
13 april, tue
tue1323:00+18n712310 0.0 1019350
02:00+15n611460 0.0 1018271
05:00+13n510530 0.0 1017220
08:00+16n56410 0.0 1019431
11:00+23nnw66150 0.0 1018941
14:00+28nnw6793 0.0 10161417
17:00+27nnw7710100 0.0 10151512
20:00+23nnw61016100 0.0 1016212
14 april, wed
wed1423:00+20nne35233 0.0 101579
02:00+18nnw45280 0.0 101660
05:00+16n47410 0.0 101696
08:00+20n56290 0.0 1016326
11:00+27n44130 0.0 1016927
14:00+31n4585 0.0 10141510
17:00+31n5585 0.0 10121638
20:00+25nnw571392 0.0 101468
15 april, thu
thu1523:00+23n441886 0.0 101440
02:00+22n441798 0.0 101349
05:00+19n44250 0.0 101337
08:00+24n45210 0.0 1015271
11:00+31nnw34110 0.0 1014975
14:00+35nnw4581 0.0 10122071
17:00+34nnw5580 0.0 10112359
20:00+28nnw510120 0.0 1012137